TimeEST,TemperatureF,Dew PointF,Humidity,Sea Level PressureIn,VisibilityMPH,Wind Direction,Wind SpeedMPH,Gust SpeedMPH,PrecipitationIn,Events,Conditions,WindDirDegrees,DateUTC
12:22 AM,30.2,28.4,93,29.78,1.5,East,21.9,28.8,0.03,Rain,Light Freezing Rain,100,2014-02-05 05:22:00
12:24 AM,30.2,28.4,93,29.78,3.0,East,19.6,28.8,0.03,Rain,Light Freezing Rain,100,2014-02-05 05:24:00
12:52 AM,30.0,28.9,96,29.79,3.0,East,16.1,25.3,0.05,Rain,Light Freezing Rain,100,2014-02-05 05:52:00
1:28 AM,30.2,28.4,93,29.79,3.0,NNE,10.4,-,0.01,,Overcast,20,2014-02-05 06:28:00
1:52 AM,30.9,28.9,92,29.79,7.0,ENE,9.2,-,0.01,,Overcast,60,2014-02-05 06:52:00
3:21 AM,30.2,28.4,93,29.73,2.5,Variable,3.5,-,0.00,Rain,Light Freezing Rain,0,2014-02-05 08:21:00
3:26 AM,30.2,30.2,100,29.73,0.8,North,3.5,-,0.01,Rain,Light Freezing Rain,10,2014-02-05 08:26:00
3:44 AM,30.2,30.2,100,29.71,0.8,ENE,4.6,-,0.02,Rain,Light Freezing Rain,60,2014-02-05 08:44:00
3:52 AM,30.9,30.0,96,29.73,0.8,ENE,4.6,-,0.02,,Overcast,70,2014-02-05 08:52:00
4:18 AM,30.2,30.2,100,29.71,0.8,North,4.6,-,0.00,,Light Freezing Drizzle,350,2014-02-05 09:18:00
4:33 AM,30.2,30.2,100,29.71,1.0,NNE,3.5,-,0.00,,Light Freezing Drizzle,20,2014-02-05 09:33:00
4:52 AM,30.9,30.0,96,29.73,0.5,Calm,Calm,-,0.01,,Light Freezing Drizzle,0,2014-02-05 09:52:00
5:06 AM,30.2,30.2,100,29.70,0.5,Calm,Calm,-,0.00,,Light Freezing Drizzle,0,2014-02-05 10:06:00
5:14 AM,30.2,30.2,100,29.70,1.2,Calm,Calm,-,0.00,,Light Freezing Drizzle,0,2014-02-05 10:14:00
5:34 AM,30.2,30.2,100,29.71,1.2,Calm,Calm,-,0.00,,Overcast,0,2014-02-05 10:34:00
5:52 AM,30.9,30.0,96,29.75,0.8,West,4.6,-,0.00,,Overcast,280,2014-02-05 10:52:00
6:52 AM,30.0,28.9,96,29.77,0.8,West,12.7,-,N/A,,Overcast,280,2014-02-05 11:52:00
7:52 AM,30.0,28.9,96,29.81,0.8,West,10.4,-,N/A,,Overcast,260,2014-02-05 12:52:00
8:36 AM,30.2,28.4,93,29.83,0.8,West,17.3,-,N/A,,Overcast,270,2014-02-05 13:36:00
8:41 AM,30.2,28.4,93,29.83,4.0,West,15.0,-,N/A,,Overcast,280,2014-02-05 13:41:00
8:52 AM,30.0,28.0,92,29.86,6.0,West,17.3,-,N/A,,Overcast,280,2014-02-05 13:52:00
9:28 AM,28.4,26.6,93,29.88,7.0,West,18.4,-,N/A,,Overcast,270,2014-02-05 14:28:00
9:52 AM,28.0,26.1,92,29.92,4.0,West,17.3,-,0.00,Snow,Light Snow,270,2014-02-05 14:52:00
9:54 AM,28.4,26.6,93,29.90,2.0,West,15.0,-,0.00,Snow,Light Snow,270,2014-02-05 14:54:00
10:52 AM,26.1,24.1,92,29.98,2.0,West,19.6,-,0.00,Snow,Light Snow,280,2014-02-05 15:52:00
11:10 AM,26.6,23.0,86,29.97,4.0,West,16.1,-,0.00,,Overcast,280,2014-02-05 16:10:00
11:19 AM,26.6,21.2,80,29.98,4.0,West,17.3,-,0.00,,Overcast,280,2014-02-05 16:19:00
11:52 AM,25.0,21.0,85,30.02,7.0,WNW,17.3,-,0.00,,Overcast,300,2014-02-05 16:52:00
12:04 PM,24.8,21.2,86,30.00,7.0,WNW,16.1,-,N/A,,Overcast,290,2014-02-05 17:04:00
12:52 PM,25.0,19.9,81,30.05,7.0,WNW,16.1,-,0.00,,Overcast,290,2014-02-05 17:52:00
1:52 PM,25.0,19.0,78,30.07,7.0,NW,12.7,-,0.00,,Overcast,310,2014-02-05 18:52:00
2:52 PM,25.0,19.0,78,30.12,3.0,WNW,12.7,-,0.00,Snow,Light Snow,300,2014-02-05 19:52:00
3:52 PM,25.0,19.9,81,30.16,3.0,NW,10.4,-,0.00,Snow,Light Snow,310,2014-02-05 20:52:00
4:41 PM,24.8,19.4,80,30.16,3.0,NW,10.4,-,0.00,Snow,Light Snow,310,2014-02-05 21:41:00
4:52 PM,25.0,19.9,81,30.19,3.0,NW,11.5,-,0.00,Snow,Light Snow,310,2014-02-05 21:52:00
5:48 PM,24.8,21.2,86,30.21,2.0,WNW,6.9,-,0.00,Snow,Light Snow,300,2014-02-05 22:48:00
5:52 PM,25.0,21.0,85,30.24,2.0,WNW,8.1,-,0.00,Snow,Light Snow,300,2014-02-05 22:52:00
6:52 PM,25.0,21.0,85,30.28,2.0,WNW,8.1,-,0.00,Snow,Light Snow,300,2014-02-05 23:52:00
7:43 PM,24.8,21.2,86,30.28,3.0,NW,8.1,-,0.00,Snow,Light Snow,320,2014-02-06 00:43:00
7:52 PM,25.0,21.0,85,30.32,3.0,NW,6.9,-,0.00,Snow,Light Snow,320,2014-02-06 00:52:00
8:52 PM,25.0,21.0,85,30.34,5.0,NW,6.9,-,0.00,Snow,Light Snow,320,2014-02-06 01:52:00
9:52 PM,25.0,21.0,85,30.36,5.0,NW,6.9,-,0.00,Snow,Light Snow,310,2014-02-06 02:52:00
10:38 PM,24.8,19.4,80,30.34,5.0,NNW,9.2,-,0.00,Snow,Light Snow,330,2014-02-06 03:38:00
10:52 PM,24.1,19.9,84,30.37,5.0,NNW,9.2,-,0.00,Snow,Light Snow,330,2014-02-06 03:52:00
11:52 PM,24.1,19.9,84,30.39,6.0,NNW,6.9,-,0.00,Snow,Light Snow,330,2014-02-06 04:52:00